Location: New York
(40.7140°N, 74.0060°W)
Time: 14:18:59
(UTC-04:00)

ISS - Visible Passes

Search period start: 01 October 2014 00:00
Search period end: 11 October 2014 00:00
Orbit: 413 x 416 km, 51.6° (Epoch: 01 October)

Date Brightness Start Highest point End Pass type
(mag) Time Alt. Az. Time Alt. Az. Time Alt. Az.
01 Oct -2.6 05:38:21 32° WSW 05:38:54 34° SW 05:41:57 10° SSE visible
02 Oct -1.0 04:52:11 18° SE 04:52:11 18° SE 04:53:09 10° SE visible
04 Oct -0.8 19:51:29 10° SSE 19:51:37 11° SSE 19:51:37 11° SSE visible
05 Oct -0.8 20:37:16 10° SW 20:38:12 18° SW 20:38:12 18° SW visible
06 Oct -2.8 19:48:16 10° SSW 19:51:25 40° SE 19:51:40 39° SE visible
07 Oct -1.9 18:59:37 10° S 19:02:17 22° SE 19:04:57 10° E visible
07 Oct -1.5 20:35:37 10° WSW 20:37:49 32° WNW 20:37:49 32° WNW visible
08 Oct -3.1 19:46:10 10° WSW 19:49:29 71° NW 19:50:55 31° NE visible
09 Oct -3.2 18:56:54 10° SW 19:00:12 64° SE 19:03:30 10° ENE visible
09 Oct -1.0 20:34:26 10° WNW 20:36:43 22° NNW 20:36:43 22° NNW visible
10 Oct -1.7 19:44:38 10° W 19:47:38 31° NNW 19:49:31 18° NNE visible
